ヒル彗星

375P/Hill (2018)

English version
Home page
Updated on July 9, 2019

---------------------------------------------------------------------

・ プロフィール

符号 375P/2018 T1
検出日 2018年10月5日
検出光度 20.6等
検出者 K. Sarneczky (Konkoly Observatory)

・ 写真集

・ 軌道要素

Epoch 2018 Dec. 28.0 TT = JDT 2458480.5
T 2018 Dec. 21.43409 TT                                 MPCW
q   1.8951607            (2000.0)            P               Q
n   0.07511974     Peri.  119.42535     -0.49076826     -0.87129012
a   5.5628840      Node   359.96411     +0.65957533     -0.37137624
e   0.6593205      Incl.   17.36544     +0.56930387     -0.32083206
P  13.12
From 281 observations 2005 Dec. 5-2019 Apr. 4, mean residual 0".5.

・ 光度変化

        m1 = 15.0 + 5 logΔ + 10.0 log r

---------------------------------------------------------------------

軌道要素はM.P.E.C. 2019-J142に掲載されたものです。
光度グラフはComet for Windowsで作成したものです。

---------------------------------------------------------------------

Copyright(C) Seiichi Yoshida (comet@aerith.net). All rights reserved.